リニア彗星

219P/LINEAR (2024)

English version
Home page
Updated on October 14, 2023

---------------------------------------------------------------------

・ プロフィール

・ 写真集

・ 軌道要素

Epoch 2023 Feb. 25.0 TT = JDT 2460000.5
T 2024 Feb. 13.67675 TT                                 Rudenko
q   2.3551835            (2000.0)            P               Q
n   0.14155095     Peri.  107.58072     +0.91566164     +0.37071302
a   3.6463711      Node   230.95189     -0.40049097     +0.87433867
e   0.3541021      Incl.   11.53944     +0.03421624     +0.31321518
P   6.96
>From 861 observations 2002 June 5-2023 May 30, mean residual 0".8.
     Nongravitational parameters A1 = +0.40, A2 = -0.1059.

・ 星図

・ 光度変化

        m1 = 7.3 + 5 logΔ + 20 log r(t + 70)

---------------------------------------------------------------------

軌道要素はM.P.E.C. 2023-L37に掲載されたものです。
星図はステラナビゲータ Ver.10 (アストロアーツ) で作成したものです。
光度グラフはComet for Windowsで作成したものです。

---------------------------------------------------------------------

Copyright(C) Seiichi Yoshida (comet@aerith.net). All rights reserved.